CPA811 KBOS-VHHH

Flight info

Callsign CPA811
Flight time N/A
Altitude 33000
Route LBSTA8 LBSTA DCT QUBIS DCT RODBO DCT IKMAN/M085F330 DCT EPMAN DCT DARUB DCT 70N060W/M085F350 75N060W 80N060W 86N040W DCT ABERI/K0911F350 M153 RAVUL/K0920F370 M153 KUTET T656 GUGLI/K0904F390 T656 GABAL/K0917F380 N615 SULOK/K0920S1160 Y327 POLHO/K0902S1220 G218 TMR/K0893S1190 B458 DADGA/K0893S1220 W37 GUSIV/K0898S1250 W37 PEXID/K0900S1220 W37 OMBEB/K0898S1250 R473 NNX/K0904S1220 R473 WYN W18 NLG W23 ZUH R473 SIERA
Aircraft A359/H-SDE2E3GHIJ3J4J5LM1ORWXY/LB1D1

Departure

Time 2026-05-05 12:51
Airport Boston Logan International Airport (KBOS)

Arrival

Time N/A
Airport Hong Kong International Airport (VHHH)
Time Latitude Longitude Altitude Speed Heading
2026-05-05 12:21 42.37045 -71.01791 32 ft 0 kts 206°
2026-05-05 12:38 42.37047 -71.01789 31 ft 3 kts 206°
2026-05-05 12:39 42.37071 -71.01773 31 ft 4 kts 206°
2026-05-05 12:39 42.37091 -71.01760 30 ft 3 kts 206°
2026-05-05 12:39 42.37114 -71.01751 29 ft 4 kts 162°
2026-05-05 12:39 42.37132 -71.01770 30 ft 4 kts 123°
2026-05-05 12:40 42.37146 -71.01799 29 ft 3 kts 123°
2026-05-05 12:40 42.37148 -71.01802 31 ft 0 kts 123°
2026-05-05 12:45 42.37146 -71.01799 31 ft 2 kts 123°
2026-05-05 12:46 42.37137 -71.01781 31 ft 5 kts 123°
2026-05-05 12:46 42.37133 -71.01717 31 ft 9 kts 76°
2026-05-05 12:46 42.37135 -71.01615 31 ft 12 kts 116°
2026-05-05 12:46 42.37070 -71.01522 31 ft 15 kts 135°
2026-05-05 12:47 42.36993 -71.01418 31 ft 16 kts 135°
2026-05-05 12:47 42.36924 -71.01311 31 ft 14 kts 114°
2026-05-05 12:47 42.36957 -71.01162 30 ft 20 kts 57°
2026-05-05 12:47 42.37068 -71.01059 31 ft 20 kts 25°
2026-05-05 12:48 42.37184 -71.00983 31 ft 10 kts 25°
2026-05-05 12:48 42.37228 -71.00955 31 ft 7 kts 25°
2026-05-05 12:48 42.37297 -71.00911 31 ft 14 kts 23°
2026-05-05 12:48 42.37413 -71.00853 31 ft 21 kts 19°
2026-05-05 12:49 42.37567 -71.00780 31 ft 24 kts 19°
2026-05-05 12:49 42.37724 -71.00705 31 ft 24 kts 19°
2026-05-05 12:49 42.37834 -71.00577 31 ft 20 kts 97°
2026-05-05 12:49 42.37776 -71.00482 31 ft 11 kts 178°
2026-05-05 12:50 42.37708 -71.00514 31 ft 10 kts 199°
2026-05-05 12:50 42.37528 -71.00600 32 ft 57 kts 200°
2026-05-05 12:50 42.36943 -71.00883 32 ft 120 kts 200°
2026-05-05 12:50 42.35974 -71.01352 43 ft 173 kts 199°
2026-05-05 12:51 42.34821 -71.01807 694 ft 174 kts 184°
2026-05-05 12:51 42.33700 -71.01251 1462 ft 182 kts 150°
2026-05-05 12:51 42.32789 -70.99956 1738 ft 199 kts 136°
2026-05-05 12:51 42.31929 -70.98398 1899 ft 214 kts 135°
2026-05-05 12:52 42.31220 -70.96508 2008 ft 243 kts 109°
2026-05-05 12:52 42.31257 -70.94108 2123 ft 267 kts 81°
2026-05-05 12:52 42.31663 -70.91584 2317 ft 282 kts 79°